星链-34961 (STARLINK-34961)

导读

STARLINK-34961是美国SpaceX星链星座的一员,于2025年8月18日成功发射。作为星链项目低轨卫星互联网星座的组成部分,它承担着为全球提供高速低延迟网络覆盖的任务,尤其服务偏远地区与网络基础设施薄弱区域,进一步扩充了星链星座的全球服务能力,推动太空互联网布局完善。

Basic Information
目录编号:
65252
目录名称:
STARLINK-34961
国际标识:
2025-179T
轨道中心:
EARTH
卫星名称:
星链-34961
卫星全名:
星链-34961 (STARLINK-34961)
卫星状态:
在轨 (已飞行382 天)
发射日期:
2025-08-18 UTC
国别 :
美国 (US)
星等 :
--
Orbit Information
数据来源 国际轨道数据 AOE轨道数据
星历时间 2026-09-02T10:53:22+0800
1天前
查看轨道信息
2026-08-28T23:00:00+0800
6天前
查看轨道信息
半长轴 6843.677km 6843.61km
偏心率 0.000085 0.0000858
轨道倾角 97.282° 97.280°
近地点辐角 87.614° 85.763°
升交点赤经 284.674° 280.243°
平近点角 272.520° 314.208°
近地点 464.958km 464.885km
远地点 466.122km 466.061km
周期 93.906分钟 93.905分钟
每日圈数 15.334463 15.334687
Detailed Information
固有亮度:
5
最大亮度:
2.5
卫星平台:
Starlink V1.0
覆盖范围:
全球
运营商:
太空探索技术公司
运营商所在国:
美国
制造商(研发单位):
太空探索技术公司
制造商所在国:
美国
使用方式:
暂无
Satellite Introduction
Starlink 计划是 SpaceX 推出的全球卫星互联网项目,通过发射低轨道卫星,为全球尤其是偏远地区提供高速、低延迟的互联网服务。自 2019 年起,Starlink 已部署数千颗卫星,旨在缩小全球数字鸿沟,推动互联网普及。该项目还为军事、航空等行业提供通信支持,带来广泛经济效益。
2D Orbit Map
3D Orbit Map
Orbit Altitude Analysis Chart
Orbit Inclination Analysis Chart
Orbit Comprehensive Analysis Chart
View Comprehensive Chart
Conjunction Data List
Event ID Objects TCA Miss Dist (km) Collision Risk Probability Collision Risk Index (CRI) Action
CDM_260905-003306-372106-525221
2026-09-05T
00:33:51+0000
2.730 km
极远距离
1.517227E-6 低风险 0.39
CDM_260904-194105-211306-525221
2026-09-04T
19:41:06+0000
2.762 km
极远距离
1.087606E-6 低风险 0.36
CDM_260904-133205-284406-525221
2026-09-04T
13:32:49+0000
2.989 km
极远距离
8.10423E-7 极低风险 0.33